Regional Weather Roundup
Issued by NWS

Home | Current Version | Previous Version | Text Only | Print | Product List | Glossary Off
Versions: 1 2 3 4 5 6 7 8 9 10 11 12 13 14 15 16 17 18 19 20 21 22 23 24 25 26 27

000
ASUS45 KBOU 241907
RWRCO

WEATHER ROUNDUP FOR COLORADO
NATIONAL WEATHER SERVICE DENVER/BOULDER CO
100 PM MDT WED AUG 24 2016

NOTE: "FAIR" INDICATES FEW OR NO CLOUDS BELOW 12000 FEET WITH NO
SIGNIFICANT WEATHER AND/OR OBSTRUCTIONS TO VISIBILITY.

COZ001>005-013-030-031-242000-
...NORTHWEST COLORADO...

CITY           SKY/WX    TMP DP  RH WIND       PRES   REMARKS
CRAIG          FAIR      73  37  27 SW8       30.18F
HAYDEN         FAIR      72  39  30 W6        30.21F
MEEKER         PTSUNNY   76  40  27 CALM      30.19F
MOUNT WERNER   NOT AVBL
STEAMBOAT SPGS FAIR      71  39  32 SW6       30.21F
WALDEN         PTSUNNY   64  30  27 E8        30.29F
$$

COZ006>008-011-242000-
...WEST CENTRAL VALLEYS...

CITY           SKY/WX    TMP DP  RH WIND       PRES   REMARKS
GRAND JUNCTION FAIR      77  47  34 VRB3      30.15F
MONTROSE       FAIR      75  44  33 CALM      30.22F
EAGLE          MOSUNNY   70  39  32 CALM      30.24F
RIFLE          FAIR      73  49  42 W5        30.17F
DELTA          FAIR      76  46  33 S8        30.19F
NUCLA          FAIR      70  48  46 CALM      30.27F
$$

COZ017>023-064>068-242000-
...SOUTHWEST COLORADO...

CITY           SKY/WX    TMP DP  RH WIND       PRES   REMARKS
DURANGO        FAIR      65  51  60 SW7       30.29F
CORTEZ         FAIR      70  54  56 SW7       30.25F
PAGOSA SPRINGS FAIR      63  43  48 W5        30.34F
TELLURIDE      CLOUDY    60  44  55 W5        30.43F
WOLF CREEK PAS CLOUDY    43  39  87 N3        30.58F
$$

COZ009-010-012-014-032>034-037-058>063-242000-
...CENTRAL COLORADO...

CITY           SKY/WX    TMP DP  RH WIND       PRES   REMARKS
ASPEN          FAIR      68  39  34 VRB7      30.29F
BUENA VISTA    FAIR      59  44  56 CALM      30.35F
COPPER MTN     PTSUNNY   45  39  81 NE3       30.56F
BERTHOUD PASS  LGT RAIN  34  21  60 E12       30.58F VSB<1/4 WCI  25
COTTONWOOD PAS PTSUNNY   55  45  67 CALM      30.45F
GUNNISON       FAIR      63  45  51 SE6       30.35F
KREMMLING      FAIR      70  39  32 SE7       30.30F
LEADVILLE      FAIR      50  39  66 VRB3      30.43F
MONARCH PASS   LGT RAIN  41  39  93 W7        30.65F
SALIDA         CLOUDY    59  46  62 SW3       30.41F
SUNLIGHT       FAIR      55  45  67 CALM      30.52F
WILKERSON PASS RAIN      41  37  87 CALM      30.55F VSB 1/4
$$

COZ069>075-242000-
...SAN LUIS VALLEY/SANGRE DE CRISTO MOUNTAINS...

CITY           SKY/WX    TMP DP  RH WIND       PRES   REMARKS
ALAMOSA        CLOUDY    64  44  48 N3        30.30F
LA VETA PASS   PTSUNNY   52  41  66 CALM      30.46F
SAGUACHE       CLOUDY    57  46  67 NE6       30.36S
$$

COZ035-036-038>040-242000-
...NORTHERN COLORADO FRONT RANGE...

CITY           SKY/WX    TMP DP  RH WIND       PRES   REMARKS
DENVER INTL AP LGT RAIN  62  51  67 SW12      30.26F
DMNS CITY PARK   N/A     58  53  83 W3        30.27S
AURORA         LGT RAIN  60  50  69 NW3       30.28F
FRONT RANGE AP LGT RAIN  63  52  67 S8        30.28S
ERIE MUNI ARPT LGT RAIN  65  50  59 NW6       30.25F
BOULDER MUN AP LGT RAIN  63  46  55 N3        30.25F
CENTENNIAL     LGT RAIN  61  50  67 W8        30.29S
BROOMFIELD     CLOUDY    64  50  59 NW7       30.28F
FORT COLLINS   FAIR      64  48  55 SE7       30.24F
LONGMONT       CLOUDY    67  49  52 CALM      30.26F HAZE
$$

COZ041-046-047-076>085-087-088-242000-
...PIKES PEAK/PALMER DIVIDE AND SOUTHERN FOOTHILLS...

CITY           SKY/WX    TMP DP  RH WIND       PRES   REMARKS
COLO. SPRINGS  CLOUDY    67  43  41 NW6       30.28F
A. F. ACADEMY  CLOUDY    63  44  49 N8        30.29F
SCHRIEVER AFB  NOT AVBL
ELLICOTT       FAIR       1   1 100 E10       30.25F WCI -15
FALCON         CLOUDY    65  40  41 E8        30.31F
FORT CARSON    NOT AVBL
LIMON          PTSUNNY   73  33  23 E15       30.23F
MONUMENT HILL  CLOUDY    59  41  51 E8        30.34F
TRINIDAD       FAIR      73  42  32 VRB6      30.20F
$$

COZ042>045-048>051-090-091-242000-
...NORTHEAST COLORADO...

CITY           SKY/WX    TMP DP  RH WIND       PRES   REMARKS
GREELEY ARPT   FAIR      68  45  42 CALM      30.23F
AKRON          FAIR      71  33  24 E10       30.23F
BURLINGTON     CLOUDY    62  48  60 N13       30.19F
WRAY           NOT AVBL
STERLING       CLOUDY    66  45  45 E3        30.21F
HOLYOKE        FAIR      79  37  22 NE16      30.20F
FORT MORGAN    CLOUDY    66  41  39 E8        30.24S
$$

COZ086-089-092>099-242000-
...SOUTHEAST COLORADO...

CITY           SKY/WX    TMP DP  RH WIND       PRES   REMARKS
PUEBLO         PTSUNNY   77  46  33 SE6       30.16F
LA JUNTA       FAIR      79  48  33 NE13G21   30.14F
LAMAR          FAIR      79  50  36 NE17      30.10F
SPRINGFIELD      N/A     77  54  44 N16       30.13S
$$




USA.gov is the U.S. government's official web portal to all federal, state and local government web resources and services.